Location: Campillo
(40.8621°N, 4.2488°W)
Time: 00:54:56
(UTC+00:00)

SJ-6B - Pass Details

Date: 27 September 2021
Orbit: 508 x 581 km, 97.6° (Epoch: 16 October)

Event Time Altitude Azimuth Distance (km) Brightness Sun altitude
Exits shadow 21:11:33 17° 281° (W) 1,492 5.6 -34.5°
Drops below altitude 10° 21:13:36 10° 310° (NW) 1,889 6.3 -34.8°
Sets 21:16:21 0° 330° (NNW) 2,783 7.2 -35.2°
